FW3039 Weather Reports


Display with metric or nautical units.
time (UTC)temp
F
wind
direction
speed
MPH
gust
MPH
rain 1hr
in
rain 24hr
in
rain mn
in
humidity
%
barometer
mb
20190915140044 70 239 3.0 10.0 0.00 0.00 0.00 63 1023.2
20190915134606 70 238 4.0 8.0 0.00 0.00 0.00 61 1023.4
20190915133043 70 249 5.0 11.0 0.00 0.00 0.00 58 1023.6
20190915131549 70 241 4.0 10.0 0.00 0.00 0.00 55 1023.5
20190915130118 70 256 5.0 10.0 0.00 0.00 0.00 54 1023.5
20190915124534 70 243 5.0 10.0 0.00 0.00 0.00 51 1023.7
20190915123056 70 276 3.0 10.0 0.00 0.00 0.00 52 1023.8
20190915121539 70 260 6.0 13.0 0.00 0.00 0.00 51 1023.8
20190915120028 70 237 2.0 12.0 0.00 0.00 0.00 60 1023.8
20190915114544 70 231 3.0 13.0 0.00 0.00 0.00 51 1023.9
20190915113041 70 276 4.0 11.0 0.00 0.00 0.00 52 1024.1
20190915111524 70 248 2.0 12.0 0.00 0.00 0.00 58 1024.1
20190915110018 69 278 5.0 11.0 0.00 0.00 0.00 59 1024.3
20190915104538 69 248 3.0 12.0 0.00 0.00 0.00 62 1024.3
20190915103023 68 287 5.0 11.0 0.00 0.00 0.00 65 1024.3
20190915101514 68 241 3.0 10.0 0.00 0.00 0.00 66 1024.3
20190915100033 67 203 5.0 12.0 0.00 0.00 0.00 69 1024.3
20190915094511 68 215 3.0 10.0 0.00 0.00 0.00 71 1024.4
20190915093032 67 231 3.0 7.0 0.00 0.00 0.00 73 1024.5
20190915091510 67 251 1.0 6.0 0.00 0.00 0.00 75 1024.4
20190915090212 66 239 2.0 8.0 0.00 0.00 0.00 78 1024.5
20190915084723 65 250 2.0 6.0 0.00 0.00 0.00 78 1024.5
20190915083224 64 228 0.0 3.0 0.00 0.00 0.00 80 1024.3
20190915081618 64 236 2.0 4.0 0.00 0.00 0.00 80 1024.2
20190915080128 63 237 0.0 4.0 0.00 0.00 0.00 81 1024.2
20190915074647 62 229 0.0 3.0 0.00 0.00 0.00 82 1024.2
20190915073103 61 242 0.0 4.0 0.00 0.00 0.00 82 1024.1
20190915071622 60 242 0.0 2.0 0.00 0.00 0.00 82 1023.9
20190915070145 59 217 0.0 2.0 0.00 0.00 0.00 84 1024.0
20190915064605 57 226 0.0 1.0 0.00 0.00 0.00 86 1024.1
20190915063052 56 215 0.0 2.0 0.00 0.00 0.00 87 1024.1
20190915061549 55 216 0.0 1.0 0.00 0.00 0.00 89 1024.0
20190915060119 53 161 0.0 1.0 0.00 0.00 0.00 90 1024.3
20190915054548 52 162 0.0 1.0 0.00 0.00 0.00 90 1024.6
20190915053039 52 161 0.0 0.0 0.00 0.00 0.00 91 1024.7
20190915051518 52 161 0.0 0.0 0.00 0.00 0.00 91 1024.7
20190915050020 52 161 0.0 0.0 0.00 0.00 0.00 91 1024.6
20190915044542 52 162 0.0 0.0 0.00 0.00 0.00 91 1024.5
20190915043031 52 162 0.0 0.0 0.00 0.00 0.00 92 1024.5
20190915041538 51 162 0.0 0.0 0.00 0.00 0.00 91 1024.6
20190915040014 51 101 0.0 1.0 0.00 0.00 0.00 91 1024.7
20190915034540 51 101 0.0 0.0 0.00 0.00 0.00 91 1024.8
20190915033045 51 101 0.0 0.0 0.00 0.00 0.00 90 1024.9
20190915031512 52 101 0.0 0.0 0.00 0.00 0.00 90 1025.0
20190915030006 52 101 0.0 0.0 0.00 0.00 0.00 92 1025.1
20190915024511 51 101 0.0 0.0 0.00 0.00 0.00 92 1025.1
20190915023023 51 101 0.0 0.0 0.00 0.00 0.00 92 1025.1
20190915021504 50 101 0.0 0.0 0.00 0.00 0.00 92 1025.2
20190915020011 50 101 0.0 0.0 0.00 0.00 0.00 91 1025.3
20190915014700 50 101 0.0 0.0 0.00 0.00 0.00 91 1025.5
20190915013217 50 101 0.0 0.0 0.00 0.00 0.00 91 1025.7
20190915011742 50 101 0.0 0.0 0.00 0.00 0.00 91 1025.8
20190915010157 50 101 0.0 0.0 0.00 0.00 0.00 90 1026.0
20190915004641 51 101 0.0 0.0 0.00 0.00 0.00 90 1026.3
20190915003157 51 101 0.0 0.0 0.00 0.00 0.00 90 1026.4
20190915001608 51 101 0.0 0.0 0.00 0.00 0.00 89 1026.4
20190915000158 51 101 0.0 0.0 0.00 0.00 0.00 89 1026.5
20190914234601 51 101 0.0 0.0 0.00 0.00 0.00 89 1026.6
20190914233103 52 101 0.0 0.0 0.00 0.00 0.00 89 1026.7
20190914231602 51 101 0.0 0.0 0.00 0.00 0.00 89 1026.6
20190914230139 52 101 0.0 0.0 0.00 0.00 0.00 88 1026.9
20190914224623 52 101 0.0 0.0 0.00 0.00 0.00 88 1027.1
20190914223104 52 101 0.0 0.0 0.00 0.00 0.00 87 1027.3
20190914221557 52 101 0.0 0.0 0.00 0.00 0.00 86 1027.3
20190914220100 53 101 0.0 0.0 0.00 0.00 0.00 85 1027.6
20190914214549 53 101 0.0 0.0 0.00 0.00 0.00 84 1027.7
20190914213131 54 101 0.0 0.0 0.00 0.00 0.00 83 1027.9
20190914211632 55 101 0.0 0.0 0.00 0.00 0.00 83 1027.9
20190914210045 55 75 0.0 0.0 0.00 0.00 0.00 84 1027.9
20190914204538 55 76 0.0 0.0 0.00 0.00 0.00 83 1028.1
20190914203044 55 75 0.0 0.0 0.00 0.00 0.00 80 1028.3
20190914201532 56 76 0.0 0.0 0.00 0.00 0.00 78 1028.5
20190914200055 57 75 0.0 0.0 0.00 0.00 0.00 76 1028.6
20190914194558 58 76 0.0 0.0 0.00 0.00 0.00 75 1028.8
20190914193027 59 75 0.0 0.0 0.00 0.00 0.00 73 1028.9
20190914191519 59 76 0.0 1.0 0.00 0.00 0.00 73 1029.0
20190914190058 60 76 0.0 0.0 0.00 0.00 0.00 71 1029.0
20190914184523 60 76 0.0 1.0 0.00 0.00 0.00 71 1029.1
20190914183037 61 77 0.0 1.0 0.00 0.00 0.00 70 1029.0
20190914181553 62 77 0.0 1.0 0.00 0.00 0.00 68 1029.0
20190914180022 63 77 0.0 1.0 0.00 0.00 0.00 65 1029.0
20190914174533 64 77 0.0 0.0 0.00 0.00 0.00 63 1029.0
20190914173017 65 77 0.0 1.0 0.00 0.00 0.00 62 1029.0
20190914171513 66 77 0.0 1.0 0.00 0.00 0.00 60 1029.0
20190914170012 66 81 0.0 5.0 0.00 0.00 0.00 58 1029.1
20190914164507 67 77 1.0 4.0 0.00 0.00 0.00 56 1029.2
20190914163006 67 32 0.0 4.0 0.00 0.00 0.00 58 1029.2
20190914161504 67 2 1.0 6.0 0.00 0.00 0.00 57 1029.3
20190914160012 68 310 1.0 7.0 0.00 0.00 0.00 57 1029.6
20190914154625 68 338 1.0 5.0 0.00 0.00 0.00 57 1029.6
20190914153208 68 59 1.0 4.0 0.00 0.00 0.00 55 1029.7
20190914151639 68 22 1.0 6.0 0.00 0.00 0.00 57 1029.9
20190914150136 68 69 3.0 8.0 0.00 0.00 0.00 54 1030.1
20190914144641 69 86 0.0 7.0 0.00 0.00 0.00 52 1030.3
20190914143202 69 73 0.0 8.0 0.00 0.00 0.00 53 1030.4